TimeMDT,TemperatureF,Dew PointF,Humidity,Sea Level PressureIn,VisibilityMPH,Wind Direction,Wind SpeedMPH,Gust SpeedMPH,PrecipitationIn,Events,Conditions,WindDirDegrees,DateUTC
12:53 AM,28.0,21.9,78,29.96,7.0,SSE,6.9,-,N/A,,Mostly Cloudy,150,2013-03-17 06:53:00
1:39 AM,26.6,21.2,80,29.84,6.0,South,3.5,-,N/A,,Scattered Clouds,190,2013-03-17 07:39:00
1:53 AM,26.1,21.9,84,29.94,6.0,Calm,Calm,-,N/A,,Clear,0,2013-03-17 07:53:00
2:53 AM,28.0,24.1,85,29.90,6.0,South,4.6,-,N/A,,Overcast,190,2013-03-17 08:53:00
3:53 AM,28.9,25.0,85,29.85,6.0,SW,4.6,-,N/A,,Scattered Clouds,220,2013-03-17 09:53:00
4:03 AM,28.4,24.8,86,29.76,5.0,SSW,8.1,-,N/A,,Mostly Cloudy,210,2013-03-17 10:03:00
4:25 AM,30.2,28.4,93,29.74,5.0,South,13.8,-,N/A,,Scattered Clouds,170,2013-03-17 10:25:00
4:53 AM,32.0,28.9,88,29.80,5.0,South,16.1,-,N/A,,Partly Cloudy,180,2013-03-17 10:53:00
5:08 AM,32.0,28.4,87,29.72,5.0,South,11.5,-,N/A,,Mostly Cloudy,180,2013-03-17 11:08:00
5:53 AM,33.1,30.0,89,29.76,6.0,South,15.0,-,N/A,,Overcast,180,2013-03-17 11:53:00
6:53 AM,33.1,28.9,85,29.73,6.0,South,17.3,23.0,N/A,,Overcast,180,2013-03-17 12:53:00
7:36 AM,32.0,28.4,87,29.63,5.0,South,11.5,-,N/A,,Scattered Clouds,190,2013-03-17 13:36:00
7:49 AM,32.0,28.4,87,29.61,5.0,SSW,12.7,21.9,N/A,,Mostly Cloudy,200,2013-03-17 13:49:00
7:53 AM,32.0,28.0,85,29.70,5.0,South,9.2,21.9,N/A,,Scattered Clouds,190,2013-03-17 13:53:00
8:53 AM,33.1,28.0,82,29.68,6.0,South,19.6,-,N/A,,Haze,190,2013-03-17 14:53:00
9:53 AM,36.0,30.0,79,29.65,6.0,SSW,12.7,-,N/A,,Haze,200,2013-03-17 15:53:00
10:53 AM,39.0,30.9,73,29.59,7.0,South,20.7,-,N/A,,Mostly Cloudy,190,2013-03-17 16:53:00
11:53 AM,46.9,33.1,59,29.53,8.0,SSW,21.9,25.3,N/A,,Clear,200,2013-03-17 17:53:00
12:53 PM,55.0,32.0,42,29.47,10.0,South,23.0,28.8,N/A,,Clear,180,2013-03-17 18:53:00
1:42 PM,60.8,23.0,23,29.39,9.0,West,34.5,43.7,N/A,,Overcast,270,2013-03-17 19:42:00
1:53 PM,61.0,18.0,19,29.42,7.0,West,38.0,47.2,N/A,,Mostly Cloudy,270,2013-03-17 19:53:00
2:53 PM,57.0,18.0,22,29.43,6.0,WNW,32.2,47.2,N/A,,Haze,290,2013-03-17 20:53:00
3:53 PM,57.9,8.1,14,29.43,6.0,West,35.7,47.2,N/A,,Haze,260,2013-03-17 21:53:00
4:53 PM,51.1,25.0,36,29.48,10.0,NW,19.6,29.9,N/A,,Mostly Cloudy,320,2013-03-17 22:53:00
5:21 PM,46.4,28.4,50,29.51,1.5,NW,47.2,65.6,N/A,,Haze,310,2013-03-17 23:21:00
5:27 PM,42.8,30.2,61,29.51,0.8,NW,42.6,65.6,0.00,Rain,Light Rain,310,2013-03-17 23:27:00
5:34 PM,39.2,30.2,70,29.52,1.2,NW,32.2,58.7,0.00,Rain,Light Rain,320,2013-03-17 23:34:00
5:42 PM,37.4,30.2,75,29.52,2.0,NW,39.1,50.6,0.00,,Haze,320,2013-03-17 23:42:00
5:50 PM,37.4,30.2,75,29.52,1.8,NW,34.5,52.9,0.00,,Haze,320,2013-03-17 23:50:00
5:53 PM,39.0,30.9,73,29.59,2.5,NW,29.9,52.9,0.00,,Haze,320,2013-03-17 23:53:00
6:00 PM,39.2,30.2,70,29.54,8.0,WNW,27.6,40.3,N/A,,Partly Cloudy,300,2013-03-18 00:00:00
6:53 PM,35.1,28.9,78,29.68,10.0,WNW,25.3,33.4,N/A,,Clear,290,2013-03-18 00:53:00
7:53 PM,35.1,25.0,67,29.76,10.0,West,25.3,33.4,N/A,,Mostly Cloudy,280,2013-03-18 01:53:00
8:53 PM,35.1,21.9,59,29.82,10.0,WNW,26.5,40.3,N/A,,Overcast,300,2013-03-18 02:53:00
9:53 PM,32.0,23.0,69,29.85,10.0,West,15.0,-,N/A,,Mostly Cloudy,280,2013-03-18 03:53:00
10:53 PM,30.9,24.1,76,29.87,10.0,West,16.1,-,N/A,,Clear,260,2013-03-18 04:53:00
11:53 PM,30.9,21.9,69,29.88,10.0,WNW,15.0,-,N/A,,Clear,290,2013-03-18 05:53:00